Year,Month,Day,Hour,Minute,Value (Times are PST for temperature in C)
2021,04,12,00,00,2.00
2021,04,12,00,01,2.00
2021,04,12,00,02,2.00
2021,04,12,00,03,1.90
2021,04,12,00,04,1.90
2021,04,12,00,05,1.90
2021,04,12,00,06,1.90
2021,04,12,00,07,1.90
2021,04,12,00,08,1.90
2021,04,12,00,09,1.90
2021,04,12,00,10,1.80
2021,04,12,00,11,1.80
2021,04,12,00,12,1.80
2021,04,12,00,13,1.80
2021,04,12,00,14,1.80
2021,04,12,00,15,1.80
2021,04,12,00,16,1.80
2021,04,12,00,17,1.80
2021,04,12,00,18,1.70
2021,04,12,00,19,1.70
2021,04,12,00,20,1.70
2021,04,12,00,21,1.60
2021,04,12,00,22,1.60
2021,04,12,00,23,1.60
2021,04,12,00,24,1.60
2021,04,12,00,25,1.50
2021,04,12,00,26,1.50
2021,04,12,00,27,1.40
2021,04,12,00,28,1.40
2021,04,12,00,29,1.40
2021,04,12,00,30,1.40
2021,04,12,00,31,1.30
2021,04,12,00,32,1.30
2021,04,12,00,33,1.30
2021,04,12,00,34,1.30
2021,04,12,00,35,1.30
2021,04,12,00,36,1.20
2021,04,12,00,37,1.20
2021,04,12,00,38,1.20
2021,04,12,00,39,1.20
2021,04,12,00,40,1.20
2021,04,12,00,41,1.10
2021,04,12,00,42,1.10
2021,04,12,00,43,1.10
2021,04,12,00,44,1.10
2021,04,12,00,45,1.10
2021,04,12,00,46,1.10
2021,04,12,00,47,1.10
2021,04,12,00,48,1.10
2021,04,12,00,49,1.10
2021,04,12,00,50,1.10
2021,04,12,00,51,1.10
2021,04,12,00,52,1.10
2021,04,12,00,53,1.10
2021,04,12,00,54,1.10
2021,04,12,00,55,1.10
2021,04,12,00,56,1.20
2021,04,12,00,57,1.20
2021,04,12,00,58,1.20
2021,04,12,00,59,1.20
2021,04,12,01,00,1.20
2021,04,12,01,01,1.20
2021,04,12,01,02,1.20
2021,04,12,01,03,1.20
2021,04,12,01,04,1.20
2021,04,12,01,05,1.20
2021,04,12,01,06,1.20
2021,04,12,01,07,1.20
2021,04,12,01,08,1.20
2021,04,12,01,09,1.20
2021,04,12,01,10,1.20
2021,04,12,01,11,1.10
2021,04,12,01,12,1.10
2021,04,12,01,13,1.10
2021,04,12,01,14,1.10
2021,04,12,01,15,1.10
2021,04,12,01,16,1.10
2021,04,12,01,17,1.10
2021,04,12,01,18,1.10
2021,04,12,01,19,1.10
2021,04,12,01,20,1.10
2021,04,12,01,21,1.10
2021,04,12,01,22,1.10
2021,04,12,01,23,1.10
2021,04,12,01,24,1.00
2021,04,12,01,25,1.00
2021,04,12,01,26,1.00
2021,04,12,01,27,1.00
2021,04,12,01,28,1.00
2021,04,12,01,29,1.00
2021,04,12,01,30,1.00
2021,04,12,01,31,1.00
2021,04,12,01,32,1.00
2021,04,12,01,33,1.00
2021,04,12,01,34,1.00
2021,04,12,01,35,1.10
2021,04,12,01,36,1.10
2021,04,12,01,37,1.10
2021,04,12,01,38,1.10
2021,04,12,01,39,1.10
2021,04,12,01,40,1.10
2021,04,12,01,41,1.10
2021,04,12,01,42,1.10
2021,04,12,01,43,1.10
2021,04,12,01,44,1.10
2021,04,12,01,45,1.10
2021,04,12,01,46,1.10
2021,04,12,01,47,1.10
2021,04,12,01,48,1.10
2021,04,12,01,49,1.10
2021,04,12,01,50,1.10
2021,04,12,01,51,1.10
2021,04,12,01,52,1.10
2021,04,12,01,53,1.10
2021,04,12,01,54,1.10
2021,04,12,01,55,1.10
2021,04,12,01,56,1.10
2021,04,12,01,57,1.10
2021,04,12,01,58,1.10
2021,04,12,01,59,1.20
2021,04,12,02,00,1.20
2021,04,12,02,01,1.10
2021,04,12,02,02,1.10
2021,04,12,02,03,1.10
2021,04,12,02,04,1.10
2021,04,12,02,05,1.10
2021,04,12,02,06,1.10
2021,04,12,02,07,1.10
2021,04,12,02,08,1.10
2021,04,12,02,09,1.10
2021,04,12,02,10,1.10
2021,04,12,02,11,1.10
2021,04,12,02,12,1.10
2021,04,12,02,13,1.10
2021,04,12,02,14,1.10
2021,04,12,02,15,1.10
2021,04,12,02,16,1.10
2021,04,12,02,17,1.10
2021,04,12,02,18,1.10
2021,04,12,02,19,1.10
2021,04,12,02,20,1.10
2021,04,12,02,21,1.10
2021,04,12,02,22,1.10
2021,04,12,02,23,1.10
2021,04,12,02,24,1.10
2021,04,12,02,25,1.10
2021,04,12,02,26,1.10
2021,04,12,02,27,1.10
2021,04,12,02,28,1.10
2021,04,12,02,29,1.00
2021,04,12,02,30,1.00
2021,04,12,02,31,1.00
2021,04,12,02,32,1.00
2021,04,12,02,33,0.90
2021,04,12,02,34,0.90
2021,04,12,02,35,0.90
2021,04,12,02,36,0.90
2021,04,12,02,37,0.90
2021,04,12,02,38,0.90
2021,04,12,02,39,0.90
2021,04,12,02,40,0.90
2021,04,12,02,41,0.90
2021,04,12,02,42,0.80
2021,04,12,02,43,0.80
2021,04,12,02,44,0.80
2021,04,12,02,45,0.80
2021,04,12,02,46,0.80
2021,04,12,02,47,0.80
2021,04,12,02,48,0.80
2021,04,12,02,49,0.70
2021,04,12,02,50,0.70
2021,04,12,02,51,0.70
2021,04,12,02,52,0.70
2021,04,12,02,53,0.70
2021,04,12,02,54,0.60
2021,04,12,02,55,0.60
2021,04,12,02,56,0.60
2021,04,12,02,57,0.60
2021,04,12,02,58,0.60
2021,04,12,02,59,0.60
2021,04,12,03,00,0.50
2021,04,12,03,01,0.50
2021,04,12,03,02,0.50
2021,04,12,03,03,0.50
2021,04,12,03,04,0.40
2021,04,12,03,05,0.40
2021,04,12,03,06,0.40
2021,04,12,03,07,0.40
2021,04,12,03,08,0.40
2021,04,12,03,09,0.30
2021,04,12,03,10,0.30
2021,04,12,03,11,0.30
2021,04,12,03,12,0.30
2021,04,12,03,13,0.30
2021,04,12,03,14,0.30
2021,04,12,03,15,0.30
2021,04,12,03,16,0.30
2021,04,12,03,17,0.20
2021,04,12,03,18,0.20
2021,04,12,03,19,0.20
2021,04,12,03,20,0.20
2021,04,12,03,21,0.20
2021,04,12,03,22,0.20
2021,04,12,03,23,0.20
2021,04,12,03,24,0.20
2021,04,12,03,25,0.20
2021,04,12,03,26,0.20
2021,04,12,03,27,0.20
2021,04,12,03,28,0.20
2021,04,12,03,29,0.20
2021,04,12,03,30,0.20
2021,04,12,03,31,0.20
2021,04,12,03,32,0.20
2021,04,12,03,33,0.20
2021,04,12,03,34,0.20
2021,04,12,03,35,0.20
2021,04,12,03,36,0.20
2021,04,12,03,37,0.20
2021,04,12,03,38,0.20
2021,04,12,03,39,0.20
2021,04,12,03,40,0.20
2021,04,12,03,41,0.20
2021,04,12,03,42,0.20
2021,04,12,03,43,0.20
2021,04,12,03,44,0.20
2021,04,12,03,45,0.20
2021,04,12,03,46,0.20
2021,04,12,03,47,0.20
2021,04,12,03,48,0.20
2021,04,12,03,49,0.20
2021,04,12,03,50,0.20
2021,04,12,03,51,0.20
2021,04,12,03,52,0.20
2021,04,12,03,53,0.20
2021,04,12,03,54,0.20
2021,04,12,03,55,0.20
2021,04,12,03,56,0.20
2021,04,12,03,57,0.20
2021,04,12,03,58,0.20
2021,04,12,03,59,0.20
2021,04,12,04,00,0.20
2021,04,12,04,01,0.20
2021,04,12,04,02,0.20
2021,04,12,04,03,0.20
2021,04,12,04,04,0.20
2021,04,12,04,05,0.20
2021,04,12,04,06,0.20
2021,04,12,04,07,0.20
2021,04,12,04,08,0.20
2021,04,12,04,09,0.20
2021,04,12,04,10,0.20
2021,04,12,04,11,0.20
2021,04,12,04,12,0.20
2021,04,12,04,13,0.20
2021,04,12,04,14,0.20
2021,04,12,04,15,0.20
2021,04,12,04,16,0.20
2021,04,12,04,17,0.20
2021,04,12,04,18,0.20
2021,04,12,04,19,0.20
2021,04,12,04,20,0.20
2021,04,12,04,21,0.10
2021,04,12,04,22,0.10
2021,04,12,04,23,0.10
2021,04,12,04,24,0.20
2021,04,12,04,25,0.20
2021,04,12,04,26,0.20
2021,04,12,04,27,0.20
2021,04,12,04,28,0.20
2021,04,12,04,29,0.20
2021,04,12,04,30,0.20
2021,04,12,04,31,0.20
2021,04,12,04,32,0.20
2021,04,12,04,33,0.20
2021,04,12,04,34,0.20
2021,04,12,04,35,0.20
2021,04,12,04,36,0.20
2021,04,12,04,37,0.20
2021,04,12,04,38,0.20
2021,04,12,04,39,0.20
2021,04,12,04,40,0.20
2021,04,12,04,41,0.20
2021,04,12,04,42,0.20
2021,04,12,04,43,0.20
2021,04,12,04,44,0.20
2021,04,12,04,45,0.20
2021,04,12,04,46,0.20
2021,04,12,04,47,0.30
2021,04,12,04,48,0.30
2021,04,12,04,49,0.30
2021,04,12,04,50,0.30
2021,04,12,04,51,0.30
2021,04,12,04,52,0.30
2021,04,12,04,53,0.30
2021,04,12,04,54,0.30
2021,04,12,04,55,0.30
2021,04,12,04,56,0.30
2021,04,12,04,57,0.30
2021,04,12,04,58,0.30
2021,04,12,04,59,0.30
2021,04,12,05,00,0.30
2021,04,12,05,01,0.30
2021,04,12,05,02,0.30
2021,04,12,05,03,0.40
2021,04,12,05,04,0.40
2021,04,12,05,05,0.40
2021,04,12,05,06,0.40
2021,04,12,05,07,0.50
2021,04,12,05,08,0.50
2021,04,12,05,09,0.50
2021,04,12,05,10,0.60
2021,04,12,05,11,0.60
2021,04,12,05,12,0.60
2021,04,12,05,13,0.60
2021,04,12,05,14,0.60
2021,04,12,05,15,0.70
2021,04,12,05,16,0.70
2021,04,12,05,17,0.70
2021,04,12,05,18,0.80
2021,04,12,05,19,0.80
2021,04,12,05,20,0.90
2021,04,12,05,21,1.00
2021,04,12,05,22,1.10
2021,04,12,05,23,1.20
2021,04,12,05,24,1.30
2021,04,12,05,25,1.40
2021,04,12,05,26,1.60
2021,04,12,05,27,1.70
2021,04,12,05,28,1.80
2021,04,12,05,29,1.90
2021,04,12,05,30,2.00
2021,04,12,05,31,2.10
2021,04,12,05,32,2.20
2021,04,12,05,33,2.30
2021,04,12,05,34,2.40
2021,04,12,05,35,2.50
2021,04,12,05,36,2.60
2021,04,12,05,37,2.70
2021,04,12,05,38,2.80
2021,04,12,05,39,2.90
2021,04,12,05,40,3.00
2021,04,12,05,41,3.10
2021,04,12,05,42,3.20
2021,04,12,05,43,3.30
2021,04,12,05,44,3.30
2021,04,12,05,45,3.40
2021,04,12,05,46,3.40
2021,04,12,05,47,3.50
2021,04,12,05,48,3.50
2021,04,12,05,49,3.50
2021,04,12,05,50,3.50
2021,04,12,05,51,3.60
2021,04,12,05,52,3.60
2021,04,12,05,53,3.60
2021,04,12,05,54,3.60
2021,04,12,05,55,3.60
2021,04,12,05,56,3.60
2021,04,12,05,57,3.60
2021,04,12,05,58,3.70
2021,04,12,05,59,3.70
2021,04,12,06,00,3.70
2021,04,12,06,01,3.70
2021,04,12,06,02,3.70
2021,04,12,06,03,3.70
2021,04,12,06,04,3.70
2021,04,12,06,05,3.70
2021,04,12,06,06,3.70
2021,04,12,06,07,3.60
2021,04,12,06,08,3.60
2021,04,12,06,09,3.60
2021,04,12,06,10,3.60
2021,04,12,06,11,3.50
2021,04,12,06,12,3.50
2021,04,12,06,13,3.40
2021,04,12,06,14,3.40
2021,04,12,06,15,3.40
2021,04,12,06,16,3.30
2021,04,12,06,17,3.30
2021,04,12,06,18,3.30
2021,04,12,06,19,3.20
2021,04,12,06,20,3.20
2021,04,12,06,21,3.20
2021,04,12,06,22,3.20
2021,04,12,06,23,3.10
2021,04,12,06,24,3.10
2021,04,12,06,25,3.10
2021,04,12,06,26,3.00
2021,04,12,06,27,3.00
2021,04,12,06,28,3.00
2021,04,12,06,29,2.90
2021,04,12,06,30,2.90
2021,04,12,06,31,2.90
2021,04,12,06,32,2.90
2021,04,12,06,33,2.90
2021,04,12,06,34,2.90
2021,04,12,06,35,2.80
2021,04,12,06,36,2.80
2021,04,12,06,37,2.80
2021,04,12,06,38,2.80
2021,04,12,06,39,2.80
2021,04,12,06,40,2.80
2021,04,12,06,41,2.80
2021,04,12,06,42,2.80
2021,04,12,06,43,2.80
2021,04,12,06,44,2.80
2021,04,12,06,45,2.80
2021,04,12,06,46,2.80
2021,04,12,06,47,2.80
2021,04,12,06,48,2.80
2021,04,12,06,49,2.80
2021,04,12,06,50,2.90
2021,04,12,06,51,2.90
2021,04,12,06,52,2.90
2021,04,12,06,53,2.90
2021,04,12,06,54,2.90
2021,04,12,06,55,2.90
2021,04,12,06,56,3.00
2021,04,12,06,57,3.00
2021,04,12,06,58,3.00
2021,04,12,06,59,3.00
2021,04,12,07,00,3.00
2021,04,12,07,01,3.00
2021,04,12,07,02,3.10
2021,04,12,07,03,3.10
2021,04,12,07,04,3.10
2021,04,12,07,05,3.10
2021,04,12,07,06,3.20
2021,04,12,07,07,3.20
2021,04,12,07,08,3.20
2021,04,12,07,09,3.30
2021,04,12,07,10,3.30
2021,04,12,07,11,3.30
2021,04,12,07,12,3.30
2021,04,12,07,13,3.40
2021,04,12,07,14,3.40
2021,04,12,07,15,3.50
2021,04,12,07,16,3.50
2021,04,12,07,17,3.60
2021,04,12,07,18,3.60
2021,04,12,07,19,3.60
2021,04,12,07,20,3.70
2021,04,12,07,21,3.70
2021,04,12,07,22,3.70
2021,04,12,07,23,3.70
2021,04,12,07,24,3.70
2021,04,12,07,25,3.70
2021,04,12,07,26,3.70
2021,04,12,07,27,3.70
2021,04,12,07,28,3.80
2021,04,12,07,29,3.80
2021,04,12,07,30,3.80
2021,04,12,07,31,3.80
2021,04,12,07,32,3.90
2021,04,12,07,33,3.90
2021,04,12,07,34,4.00
2021,04,12,07,35,4.10
2021,04,12,07,36,4.10
2021,04,12,07,37,4.10
2021,04,12,07,38,4.20
2021,04,12,07,39,4.20
2021,04,12,07,40,4.30
2021,04,12,07,41,4.30
2021,04,12,07,42,4.40
2021,04,12,07,43,4.50
2021,04,12,07,44,4.50
2021,04,12,07,45,4.60
2021,04,12,07,46,4.60
2021,04,12,07,47,4.60
2021,04,12,07,48,4.70
2021,04,12,07,49,4.80
2021,04,12,07,50,4.90
2021,04,12,07,51,4.90
2021,04,12,07,52,5.00
2021,04,12,07,53,5.00
2021,04,12,07,54,5.10
2021,04,12,07,55,5.10
2021,04,12,07,56,5.10
2021,04,12,07,57,5.10
2021,04,12,07,58,5.10
2021,04,12,07,59,5.20
2021,04,12,08,00,5.20
2021,04,12,08,01,5.30
2021,04,12,08,02,5.40
2021,04,12,08,03,5.50
2021,04,12,08,04,5.60
2021,04,12,08,05,5.70
2021,04,12,08,06,5.80
2021,04,12,08,07,5.90
2021,04,12,08,08,6.00
2021,04,12,08,09,6.10
2021,04,12,08,10,6.20
2021,04,12,08,11,6.20
2021,04,12,08,12,6.30
2021,04,12,08,13,6.40
2021,04,12,08,14,6.50
2021,04,12,08,15,6.60
2021,04,12,08,16,6.70
2021,04,12,08,17,6.70
2021,04,12,08,18,6.80
2021,04,12,08,19,6.90
2021,04,12,08,20,7.00
2021,04,12,08,21,7.10
2021,04,12,08,22,7.20
2021,04,12,08,23,7.20
2021,04,12,08,24,7.30
2021,04,12,08,25,7.30
2021,04,12,08,26,7.30
2021,04,12,08,27,7.20
2021,04,12,08,28,7.30
2021,04,12,08,29,7.30
2021,04,12,08,30,7.30
2021,04,12,08,31,7.40
2021,04,12,08,32,7.50
2021,04,12,08,33,7.50
2021,04,12,08,34,7.60
2021,04,12,08,35,7.60
2021,04,12,08,36,7.60
2021,04,12,08,37,7.60
2021,04,12,08,38,7.60
2021,04,12,08,39,7.70
2021,04,12,08,40,7.70
2021,04,12,08,41,7.60
2021,04,12,08,42,7.60
2021,04,12,08,43,7.60
2021,04,12,08,44,7.70
2021,04,12,08,45,7.70
2021,04,12,08,46,7.70
2021,04,12,08,47,7.70
2021,04,12,08,48,7.70
2021,04,12,08,49,7.60
2021,04,12,08,50,7.60
2021,04,12,08,51,7.60
2021,04,12,08,52,7.50
2021,04,12,08,53,7.50
2021,04,12,08,54,7.40
2021,04,12,08,55,7.40
2021,04,12,08,56,7.40
2021,04,12,08,57,7.30
2021,04,12,08,58,7.40
2021,04,12,08,59,7.40
2021,04,12,09,00,7.40
2021,04,12,09,01,7.40
2021,04,12,09,02,7.50
2021,04,12,09,03,7.50
2021,04,12,09,04,7.60
2021,04,12,09,05,7.80
2021,04,12,09,06,7.90
2021,04,12,09,07,8.00
2021,04,12,09,08,8.10
2021,04,12,09,09,8.20
2021,04,12,09,10,8.40
2021,04,12,09,11,8.50
2021,04,12,09,12,8.60
2021,04,12,09,13,8.70
2021,04,12,09,14,8.80
2021,04,12,09,15,8.90
2021,04,12,09,16,9.00
2021,04,12,09,17,9.00
2021,04,12,09,18,9.10
2021,04,12,09,19,9.10
2021,04,12,09,20,9.10
2021,04,12,09,21,9.10
2021,04,12,09,22,9.10
2021,04,12,09,23,9.10
2021,04,12,09,24,9.20
2021,04,12,09,25,9.20
2021,04,12,09,26,9.20
2021,04,12,09,27,9.30
2021,04,12,09,28,9.30
2021,04,12,09,29,9.30
2021,04,12,09,30,9.30
2021,04,12,09,31,9.40
2021,04,12,09,32,9.40
2021,04,12,09,33,9.40
2021,04,12,09,34,9.50
2021,04,12,09,35,9.50
2021,04,12,09,36,9.50
2021,04,12,09,37,9.50
2021,04,12,09,38,9.50
2021,04,12,09,39,9.50
2021,04,12,09,40,9.40
2021,04,12,09,41,9.40
2021,04,12,09,42,9.40
2021,04,12,09,43,9.40
2021,04,12,09,44,9.40
2021,04,12,09,45,9.40
2021,04,12,09,46,9.30
2021,04,12,09,47,9.30
2021,04,12,09,48,9.30
2021,04,12,09,49,9.20
2021,04,12,09,50,9.20
2021,04,12,09,51,9.20
2021,04,12,09,52,9.10
2021,04,12,09,53,9.00
2021,04,12,09,54,9.00
2021,04,12,09,55,9.00
2021,04,12,09,56,9.00
2021,04,12,09,57,9.00
2021,04,12,09,58,9.00
2021,04,12,09,59,9.10
2021,04,12,10,00,9.10
2021,04,12,10,01,9.10
2021,04,12,10,02,9.10
2021,04,12,10,03,9.20
2021,04,12,10,04,9.20
2021,04,12,10,05,9.10
2021,04,12,10,06,9.10
2021,04,12,10,07,9.10
2021,04,12,10,08,9.10
2021,04,12,10,09,9.10
2021,04,12,10,10,9.10
2021,04,12,10,11,9.20
2021,04,12,10,12,9.20
2021,04,12,10,13,9.10
2021,04,12,10,14,9.10
2021,04,12,10,15,9.00
2021,04,12,10,16,9.00
2021,04,12,10,17,8.90
2021,04,12,10,18,8.90
2021,04,12,10,19,8.80
2021,04,12,10,20,8.80
2021,04,12,10,21,8.80
2021,04,12,10,22,8.90
2021,04,12,10,23,9.00
2021,04,12,10,24,9.10
2021,04,12,10,25,9.20
2021,04,12,10,26,9.20
2021,04,12,10,27,9.30
2021,04,12,10,28,9.30
2021,04,12,10,29,9.40
2021,04,12,10,30,9.40
2021,04,12,10,31,9.40
2021,04,12,10,32,9.40
2021,04,12,10,33,9.40
2021,04,12,10,34,9.40
2021,04,12,10,35,9.40
2021,04,12,10,36,9.40
2021,04,12,10,37,9.30
2021,04,12,10,38,9.30
2021,04,12,10,39,9.20
2021,04,12,10,40,9.20
2021,04,12,10,41,9.20
2021,04,12,10,42,9.30
2021,04,12,10,43,9.30
2021,04,12,10,44,9.30
2021,04,12,10,45,9.40
2021,04,12,10,46,9.40
2021,04,12,10,47,9.40
2021,04,12,10,48,9.50
2021,04,12,10,49,9.40
2021,04,12,10,50,9.40
2021,04,12,10,51,9.40
2021,04,12,10,52,9.40
2021,04,12,10,53,9.40
2021,04,12,10,54,9.40
2021,04,12,10,55,9.40
2021,04,12,10,56,9.40
2021,04,12,10,57,9.40
2021,04,12,10,58,9.40
2021,04,12,10,59,9.40
2021,04,12,11,00,9.40
2021,04,12,11,01,9.40
2021,04,12,11,02,9.40
2021,04,12,11,03,9.40
2021,04,12,11,04,9.40
2021,04,12,11,05,9.40
2021,04,12,11,06,9.40
2021,04,12,11,07,9.30
2021,04,12,11,08,9.30
2021,04,12,11,09,9.30
2021,04,12,11,10,9.30
2021,04,12,11,11,9.30
2021,04,12,11,12,9.30
2021,04,12,11,13,9.30
2021,04,12,11,14,9.40
2021,04,12,11,15,9.40
2021,04,12,11,16,9.50
2021,04,12,11,17,9.50
2021,04,12,11,18,9.60
2021,04,12,11,19,9.60
2021,04,12,11,20,9.60
2021,04,12,11,21,9.60
2021,04,12,11,22,9.60
2021,04,12,11,23,9.60
2021,04,12,11,24,9.70
2021,04,12,11,25,9.70
2021,04,12,11,26,9.80
2021,04,12,11,27,9.80
2021,04,12,11,28,9.90
2021,04,12,11,29,10.00
2021,04,12,11,30,10.10
2021,04,12,11,31,10.10
2021,04,12,11,32,10.10
2021,04,12,11,33,10.10
2021,04,12,11,34,10.00
2021,04,12,11,35,10.00
2021,04,12,11,36,10.00
2021,04,12,11,37,10.00
2021,04,12,11,38,9.90
2021,04,12,11,39,9.90
2021,04,12,11,40,9.90
2021,04,12,11,41,9.90
2021,04,12,11,42,9.90
2021,04,12,11,43,9.90
2021,04,12,11,44,10.00
2021,04,12,11,45,10.00
2021,04,12,11,46,10.00
2021,04,12,11,47,9.90
2021,04,12,11,48,9.90
2021,04,12,11,49,9.90
2021,04,12,11,50,10.00
2021,04,12,11,51,10.00
2021,04,12,11,52,10.10
2021,04,12,11,53,10.20
2021,04,12,11,54,10.20
2021,04,12,11,55,10.20
2021,04,12,11,56,10.20
2021,04,12,11,57,10.20
2021,04,12,11,58,10.20
2021,04,12,11,59,10.20
2021,04,12,12,00,10.20
2021,04,12,12,01,10.30
2021,04,12,12,02,10.30
2021,04,12,12,03,10.40
2021,04,12,12,04,10.50
2021,04,12,12,05,10.50
2021,04,12,12,06,10.60
2021,04,12,12,07,10.50
2021,04,12,12,08,10.50
2021,04,12,12,09,10.40
2021,04,12,12,10,10.40
2021,04,12,12,11,10.40
2021,04,12,12,12,10.50
2021,04,12,12,13,10.50
2021,04,12,12,14,10.60
2021,04,12,12,15,10.60
2021,04,12,12,16,10.60
2021,04,12,12,17,10.70
2021,04,12,12,18,10.70
2021,04,12,12,19,10.70
2021,04,12,12,20,10.80
2021,04,12,12,21,10.80
2021,04,12,12,22,10.80
2021,04,12,12,23,10.80
2021,04,12,12,24,10.80
2021,04,12,12,25,10.80
2021,04,12,12,26,10.70
2021,04,12,12,27,10.70
2021,04,12,12,28,10.70
2021,04,12,12,29,10.70
2021,04,12,12,30,10.60
2021,04,12,12,31,10.60
2021,04,12,12,32,10.50
2021,04,12,12,33,10.50
2021,04,12,12,34,10.50
2021,04,12,12,35,10.50
2021,04,12,12,36,10.40
2021,04,12,12,37,10.40
2021,04,12,12,38,10.40
2021,04,12,12,39,10.40
2021,04,12,12,40,10.40
2021,04,12,12,41,10.40
2021,04,12,12,42,10.50
2021,04,12,12,43,10.50
2021,04,12,12,44,10.60
2021,04,12,12,45,10.60
2021,04,12,12,46,10.60
2021,04,12,12,47,10.60
2021,04,12,12,48,10.60
2021,04,12,12,49,10.70
2021,04,12,12,50,10.80
2021,04,12,12,51,10.90
2021,04,12,12,52,11.10
2021,04,12,12,53,11.20
2021,04,12,12,54,11.40
2021,04,12,12,55,11.60
2021,04,12,12,56,11.70
2021,04,12,12,57,11.80
2021,04,12,12,58,11.70
2021,04,12,12,59,11.60
2021,04,12,13,00,11.50
2021,04,12,13,01,11.40
2021,04,12,13,02,11.40
2021,04,12,13,03,11.40
2021,04,12,13,04,11.40
2021,04,12,13,05,11.30
2021,04,12,13,06,11.30
2021,04,12,13,07,11.30
2021,04,12,13,08,11.30
2021,04,12,13,09,11.30
2021,04,12,13,10,11.40
2021,04,12,13,11,11.50
2021,04,12,13,12,11.60
2021,04,12,13,13,11.50
2021,04,12,13,14,11.50
2021,04,12,13,15,11.40
2021,04,12,13,16,11.40
2021,04,12,13,17,11.40
2021,04,12,13,18,11.50
2021,04,12,13,19,11.50
2021,04,12,13,20,11.60
2021,04,12,13,21,11.50
2021,04,12,13,22,11.50
2021,04,12,13,23,11.50
2021,04,12,13,24,11.50
2021,04,12,13,25,11.50
2021,04,12,13,26,11.60
2021,04,12,13,27,11.60
2021,04,12,13,28,11.50
2021,04,12,13,29,11.50
2021,04,12,13,30,11.50
2021,04,12,13,31,11.50
2021,04,12,13,32,11.50
2021,04,12,13,33,11.60
2021,04,12,13,34,11.70
2021,04,12,13,35,11.70
2021,04,12,13,36,11.70
2021,04,12,13,37,11.70
2021,04,12,13,38,11.70
2021,04,12,13,39,11.70
2021,04,12,13,40,11.80
2021,04,12,13,41,11.80
2021,04,12,13,42,11.90
2021,04,12,13,43,11.90
2021,04,12,13,44,11.90
2021,04,12,13,45,11.80
2021,04,12,13,46,11.80
2021,04,12,13,47,11.70
2021,04,12,13,48,11.70
2021,04,12,13,49,11.70
2021,04,12,13,50,11.70
2021,04,12,13,51,11.70
2021,04,12,13,52,11.70
2021,04,12,13,53,11.70
2021,04,12,13,54,11.70
2021,04,12,13,55,11.70
2021,04,12,13,56,11.60
2021,04,12,13,57,11.70
2021,04,12,13,58,11.70
2021,04,12,13,59,11.60
2021,04,12,14,00,11.60
2021,04,12,14,01,11.60
2021,04,12,14,02,11.70
2021,04,12,14,03,11.70
2021,04,12,14,04,11.70
2021,04,12,14,05,11.70
2021,04,12,14,06,11.70
2021,04,12,14,07,11.80
2021,04,12,14,08,11.80
2021,04,12,14,09,11.80
2021,04,12,14,10,11.80
2021,04,12,14,11,12.00
2021,04,12,14,12,12.20
2021,04,12,14,13,12.40
2021,04,12,14,14,12.60
2021,04,12,14,15,12.70
2021,04,12,14,16,12.80
2021,04,12,14,17,12.70
2021,04,12,14,18,12.60
2021,04,12,14,19,12.40
2021,04,12,14,20,12.40
2021,04,12,14,21,12.30
2021,04,12,14,22,12.30
2021,04,12,14,23,12.40
2021,04,12,14,24,12.40
2021,04,12,14,25,12.50
2021,04,12,14,26,12.60
2021,04,12,14,27,12.70
2021,04,12,14,28,12.80
2021,04,12,14,29,12.90
2021,04,12,14,30,12.90
2021,04,12,14,31,12.90
2021,04,12,14,32,12.90
2021,04,12,14,33,12.90
2021,04,12,14,34,12.90
2021,04,12,14,35,13.00
2021,04,12,14,36,12.90
2021,04,12,14,37,12.90
2021,04,12,14,38,12.90
2021,04,12,14,39,12.90
2021,04,12,14,40,12.90
2021,04,12,14,41,12.90
2021,04,12,14,42,12.90
2021,04,12,14,43,12.90
2021,04,12,14,44,12.90
2021,04,12,14,45,12.90
2021,04,12,14,46,12.90
2021,04,12,14,47,13.00
2021,04,12,14,48,13.00
2021,04,12,14,49,13.00
2021,04,12,14,50,13.00
2021,04,12,14,51,13.00
2021,04,12,14,52,13.00
2021,04,12,14,53,13.10
2021,04,12,14,54,13.10
2021,04,12,14,55,13.10
2021,04,12,14,56,13.00
2021,04,12,14,57,13.00
2021,04,12,14,58,12.90
2021,04,12,14,59,12.90
2021,04,12,15,00,12.90
2021,04,12,15,01,12.80
2021,04,12,15,02,12.80
2021,04,12,15,03,12.80
2021,04,12,15,04,12.70
2021,04,12,15,05,12.60
2021,04,12,15,06,12.60
2021,04,12,15,07,12.60
2021,04,12,15,08,12.60
2021,04,12,15,09,12.60
2021,04,12,15,10,12.70
2021,04,12,15,11,12.70
2021,04,12,15,12,12.80
2021,04,12,15,13,12.90
2021,04,12,15,14,12.90
2021,04,12,15,15,12.90
2021,04,12,15,16,12.80
2021,04,12,15,17,12.80
2021,04,12,15,18,12.80
2021,04,12,15,19,12.80
2021,04,12,15,20,12.80
2021,04,12,15,21,12.90
2021,04,12,15,22,13.00
2021,04,12,15,23,13.00
2021,04,12,15,24,13.10
2021,04,12,15,25,13.10
2021,04,12,15,26,13.10
2021,04,12,15,27,13.20
2021,04,12,15,28,13.20
2021,04,12,15,29,13.30
2021,04,12,15,30,13.30
2021,04,12,15,31,13.30
2021,04,12,15,32,13.30
2021,04,12,15,33,13.40
2021,04,12,15,34,13.50
2021,04,12,15,35,13.50
2021,04,12,15,36,13.50
2021,04,12,15,37,13.50
2021,04,12,15,38,13.50
2021,04,12,15,39,13.50
2021,04,12,15,40,13.50
2021,04,12,15,41,13.50
2021,04,12,15,42,13.50
2021,04,12,15,43,13.50
2021,04,12,15,44,13.40
2021,04,12,15,45,13.40
2021,04,12,15,46,13.30
2021,04,12,15,47,13.30
2021,04,12,15,48,13.30
2021,04,12,15,49,13.30
2021,04,12,15,50,13.30
2021,04,12,15,51,13.30
2021,04,12,15,52,13.30
2021,04,12,15,53,13.30
2021,04,12,15,54,13.30
2021,04,12,15,55,13.30
2021,04,12,15,56,13.40
2021,04,12,15,57,13.40
2021,04,12,15,58,13.40
2021,04,12,15,59,13.40
2021,04,12,16,00,13.40
2021,04,12,16,01,13.40
2021,04,12,16,02,13.40
2021,04,12,16,03,13.40
2021,04,12,16,04,13.50
2021,04,12,16,05,13.50
2021,04,12,16,06,13.50
2021,04,12,16,07,13.60
2021,04,12,16,08,13.60
2021,04,12,16,09,13.70
2021,04,12,16,10,13.70
2021,04,12,16,11,13.70
2021,04,12,16,12,13.70
2021,04,12,16,13,13.70
2021,04,12,16,14,13.70
2021,04,12,16,15,13.70
2021,04,12,16,16,13.70
2021,04,12,16,17,13.70
2021,04,12,16,18,13.70
2021,04,12,16,19,13.70
2021,04,12,16,20,13.70
2021,04,12,16,21,13.70
2021,04,12,16,22,13.70
2021,04,12,16,23,13.70
2021,04,12,16,24,13.80
2021,04,12,16,25,13.80
2021,04,12,16,26,13.80
2021,04,12,16,27,13.90
2021,04,12,16,28,13.90
2021,04,12,16,29,13.90
2021,04,12,16,30,13.90
2021,04,12,16,31,13.80
2021,04,12,16,32,13.80
2021,04,12,16,33,13.80
2021,04,12,16,34,13.80
2021,04,12,16,35,13.80
2021,04,12,16,36,13.80
2021,04,12,16,37,13.80
2021,04,12,16,38,13.80
2021,04,12,16,39,13.80
2021,04,12,16,40,13.80
2021,04,12,16,41,13.80
2021,04,12,16,42,13.80
2021,04,12,16,43,13.80
2021,04,12,16,44,13.80
2021,04,12,16,45,13.80
2021,04,12,16,46,13.80
2021,04,12,16,47,13.80
2021,04,12,16,48,13.80
2021,04,12,16,49,13.80
2021,04,12,16,50,13.80
2021,04,12,16,51,13.80
2021,04,12,16,52,13.80
2021,04,12,16,53,13.80
2021,04,12,16,54,13.80
2021,04,12,16,55,13.70
2021,04,12,16,56,13.70
2021,04,12,16,57,13.70
2021,04,12,16,58,13.70
2021,04,12,16,59,13.60
2021,04,12,17,00,13.60
2021,04,12,17,01,13.60
2021,04,12,17,02,13.60
2021,04,12,17,03,13.60
2021,04,12,17,04,13.60
2021,04,12,17,05,13.60
2021,04,12,17,06,13.60
2021,04,12,17,07,13.60
2021,04,12,17,08,13.60
2021,04,12,17,09,13.70
2021,04,12,17,10,13.70
2021,04,12,17,11,13.70
2021,04,12,17,12,13.70
2021,04,12,17,13,13.70
2021,04,12,17,14,13.60
2021,04,12,17,15,13.60
2021,04,12,17,16,13.60
2021,04,12,17,17,13.60
2021,04,12,17,18,13.70
2021,04,12,17,19,13.70
2021,04,12,17,20,13.70
2021,04,12,17,21,13.70
2021,04,12,17,22,13.70
2021,04,12,17,23,13.70
2021,04,12,17,24,13.70
2021,04,12,17,25,13.70
2021,04,12,17,26,13.70
2021,04,12,17,27,13.70
2021,04,12,17,28,13.80
2021,04,12,17,29,13.80
2021,04,12,17,30,13.80
2021,04,12,17,31,13.90
2021,04,12,17,32,13.90
2021,04,12,17,33,13.90
2021,04,12,17,34,13.90
2021,04,12,17,35,13.90
2021,04,12,17,36,13.90
2021,04,12,17,37,13.80
2021,04,12,17,38,13.80
2021,04,12,17,39,13.80
2021,04,12,17,40,13.80
2021,04,12,17,41,13.80
2021,04,12,17,42,13.80
2021,04,12,17,43,13.80
2021,04,12,17,44,13.90
2021,04,12,17,45,13.90
2021,04,12,17,46,13.90
2021,04,12,17,47,13.90
2021,04,12,17,48,13.90
2021,04,12,17,49,13.90